GW4477 Weather Reports


time (UTC)temp
C
wind
direction
speed
KPH
gust
KPH
rain 1hr
cm
rain 24hr
cm
rain mn
cm
humidity
%
barometer
mb
20260504081520 10 271 0.0 3.2 0.00 0.00 0.00 53 1006.9
20260504050022 15 138 0.0 4.8 0.00 0.00 0.00 36 1007.8
20260504044522 15 89 0.0 3.2 0.00 0.00 0.00 36 1007.9
20260504043008 16 146 0.0 3.2 0.00 0.00 0.00 35 1008.0
20260504041514 16 98 0.0 3.2 0.00 0.00 0.00 32 1008.3
20260504040036 16 159 0.0 3.2 0.00 0.00 0.00 31 1008.3
20260504034524 16 163 0.0 0.0 0.00 0.00 0.00 32 1008.4
20260504033028 17 163 0.0 3.2 0.00 0.00 0.00 32 1008.5
20260504031509 17 163 0.0 3.2 0.00 0.00 0.00 30 1008.4
20260504030016 18 130 0.0 3.2 0.00 0.00 0.00 29 1008.2
20260504024522 20 130 1.6 8.0 0.00 0.00 0.00 27 1008.1
20260504023026 21 53 0.0 3.2 0.00 0.00 0.00 25 1008.0
20260504021528 22 33 1.6 8.0 0.00 0.00 0.00 23 1007.9
20260504020013 23 11 4.8 8.0 0.00 0.00 0.00 21 1008.0
20260504014525 23 360 3.2 8.0 0.00 0.00 0.00 19 1007.7
20260504013025 25 352 3.2 8.0 0.00 0.00 0.00 19 1007.7
20260504011525 25 19 6.4 11.3 0.00 0.00 0.00 17 1007.5
20260504010025 26 46 6.4 16.1 0.00 0.00 0.00 17 1007.4
20260504004515 27 17 6.4 17.7 0.00 0.00 0.00 16 1007.4
20260504003023 28 360 6.4 11.3 0.00 0.00 0.00 12 1007.7
20260504001524 29 326 3.2 6.4 0.00 0.00 0.00 12 1007.8
20260504000028 29 313 1.6 4.8 0.00 0.00 0.00 14 1007.8
20260503234526 29 299 1.6 6.4 0.00 0.00 0.00 14 1007.7
20260503233021 28 33 3.2 11.3 0.00 0.00 0.00 14 1007.9
20260503231505 28 257 6.4 19.3 0.00 0.00 0.00 14 1007.9
20260503230009 29 222 6.4 20.9 0.00 0.00 0.00 12 1008.0
20260503224514 30 212 9.7 19.3 0.00 0.00 0.00 13 1008.2
20260503223003 29 290 6.4 19.3 0.00 0.00 0.00 13 1008.5
20260503221507 29 235 9.7 24.1 0.00 0.00 0.00 14 1008.7
20260503220010 29 222 11.3 25.7 0.00 0.00 0.00 14 1008.9
20260503214511 29 185 8.0 22.5 0.00 0.00 0.00 15 1009.2
20260503213021 28 192 9.7 16.1 0.00 0.00 0.00 14 1009.3
20260503211504 28 230 4.8 12.9 0.00 0.00 0.00 13 1009.6
20260503210006 28 213 4.8 19.3 0.00 0.00 0.00 14 1010.0
20260503204513 29 223 8.0 24.1 0.00 0.00 0.00 14 1010.3
20260503203016 28 200 9.7 22.5 0.00 0.00 0.00 14 1010.6
20260503201520 28 221 8.0 16.1 0.00 0.00 0.00 17 1011.0
20260503200008 28 218 8.0 16.1 0.00 0.00 0.00 15 1011.2
20260503194508 28 279 11.3 24.1 0.00 0.00 0.00 17 1011.3
20260503193034 28 185 6.4 20.9 0.00 0.00 0.00 17 1011.6
20260503191522 28 217 12.9 24.1 0.00 0.00 0.00 16 1011.8
20260503190024 28 242 4.8 27.4 0.00 0.00 0.00 19 1012.1
20260503184512 28 233 6.4 30.6 0.00 0.00 0.00 17 1012.5
20260503183014 27 263 11.3 20.9 0.00 0.00 0.00 18 1012.9
20260503181520 27 254 6.4 25.7 0.00 0.00 0.00 19 1013.4
20260503180026 27 213 12.9 22.5 0.00 0.00 0.00 19 1013.7
20260503174531 26 261 8.0 24.1 0.00 0.00 0.00 21 1014.0
20260503173022 27 225 9.7 20.9 0.00 0.00 0.00 21 1014.5
20260503171522 26 243 8.0 20.9 0.00 0.00 0.00 23 1014.6